Location: *
(50.3440°N, 18.6237°E)
Time: 13:04:48
(UTC+00:00)

ERS-2 - Pass Details

Date: 30 November 2020
Orbit: 492 x 498 km, 98.6° (Epoch: 27 January)

Event Time Altitude Azimuth Distance (km) Brightness Sun altitude
Exits shadow 16:57:05 39° 11° (N) 764 2.8 -20.1°
Maximum altitude 16:58:22 84° 289° (WNW) 509 2.1 -20.3°
Drops below altitude 10° 17:02:02 10° 199° (SSW) 1,701 5.2 -20.9°
Sets 17:04:05 0° 198° (SSW) 2,579 6.1 -21.2°
